| time (UTC) | temp F | wind direction | speed MPH | gust MPH | rain 1hr in | rain 24hr in | rain mn in | humidity % | barometer mb |
| 20260503002547 | 63 | 334 | 0.0 | 2.0 | 0.00 | 0.26 | 0.26 | 89 | 1013.0 |
| 20260503002043 | 63 | 333 | 0.0 | 2.0 | 0.00 | 0.26 | 0.26 | 89 | 1012.9 |
| 20260503001550 | 63 | 267 | 0.0 | 0.0 | 0.00 | 0.26 | 0.26 | 89 | 1012.7 |
| 20260503001041 | 63 | 267 | 0.0 | 0.0 | 0.00 | 0.26 | 0.26 | 89 | 1012.7 |
| 20260503000541 | 63 | 272 | 0.0 | 0.0 | 0.00 | 0.26 | 0.26 | 89 | 1012.4 |
| 20260503000042 | 63 | 267 | 0.0 | 0.0 | 0.00 | 0.26 | 0.26 | 89 | 1012.4 |
| 20260502235540 | 63 | 267 | 0.0 | 7.0 | 0.00 | 0.26 | 0.26 | 89 | 1012.4 |
| 20260502235039 | 63 | 266 | 0.0 | 7.0 | 0.00 | 0.26 | 0.26 | 89 | 1012.2 |
| 20260502234538 | 64 | 333 | 0.0 | 1.0 | 0.00 | 0.26 | 0.26 | 89 | 1012.1 |
| 20260502234036 | 64 | 333 | 0.0 | 0.0 | 0.00 | 0.26 | 0.26 | 89 | 1012.0 |
| 20260502233536 | 64 | 333 | 0.0 | 2.0 | 0.00 | 0.26 | 0.26 | 89 | 1011.7 |
| 20260502233043 | 64 | 333 | 0.0 | 3.0 | 0.00 | 0.26 | 0.26 | 88 | 1011.8 |
| 20260502232535 | 64 | 335 | 1.0 | 3.0 | 0.00 | 0.26 | 0.26 | 88 | 1011.8 |
| 20260502232035 | 64 | 91 | 0.0 | 3.0 | 0.00 | 0.26 | 0.26 | 89 | 1011.7 |
| 20260502231553 | 64 | 298 | 1.0 | 3.0 | 0.00 | 0.26 | 0.26 | 88 | 1011.8 |
| 20260502231036 | 65 | 338 | 0.0 | 2.0 | 0.00 | 0.26 | 0.26 | 88 | 1011.5 |
| 20260502230533 | 65 | 338 | 0.0 | 2.0 | 0.00 | 0.26 | 0.26 | 88 | 1011.4 |
| 20260502230031 | 65 | 338 | 0.0 | 2.0 | 0.00 | 0.26 | 0.26 | 88 | 1011.2 |
| 20260502225530 | 65 | 338 | 0.0 | 2.0 | 0.00 | 0.26 | 0.26 | 88 | 1011.1 |
| 20260502225031 | 66 | 336 | 0.0 | 4.0 | 0.00 | 0.26 | 0.26 | 88 | 1011.2 |
| 20260502224532 | 66 | 308 | 0.0 | 4.0 | 0.00 | 0.26 | 0.26 | 87 | 1011.0 |
| 20260502224030 | 67 | 335 | 1.0 | 4.0 | 0.00 | 0.26 | 0.26 | 87 | 1011.0 |
| 20260502223530 | 68 | 336 | 0.0 | 4.0 | 0.00 | 0.26 | 0.26 | 86 | 1010.7 |
| 20260502223030 | 69 | 334 | 1.0 | 5.0 | 0.00 | 0.26 | 0.26 | 86 | 1010.6 |
| 20260502222530 | 69 | 321 | 1.0 | 5.0 | 0.00 | 0.26 | 0.26 | 86 | 1010.3 |
| 20260502222029 | 70 | 338 | 0.0 | 2.0 | 0.00 | 0.26 | 0.26 | 86 | 1010.0 |
| 20260502221530 | 70 | 360 | 0.0 | 2.0 | 0.00 | 0.26 | 0.26 | 86 | 1009.7 |
| 20260502221029 | 70 | 360 | 0.0 | 2.0 | 0.00 | 0.26 | 0.26 | 87 | 1009.6 |
| 20260502220529 | 70 | 360 | 0.0 | 2.0 | 0.00 | 0.26 | 0.26 | 88 | 1009.5 |
| 20260502220036 | 70 | 360 | 0.0 | 2.0 | 0.00 | 0.26 | 0.26 | 88 | 1009.4 |
| 20260502215528 | 70 | 360 | 0.0 | 2.0 | 0.00 | 0.26 | 0.26 | 88 | 1009.3 |
| 20260502215029 | 69 | 360 | 0.0 | 2.0 | 0.00 | 0.26 | 0.26 | 89 | 1009.3 |
| 20260502214529 | 69 | 360 | 0.0 | 3.0 | 0.00 | 0.26 | 0.26 | 89 | 1009.2 |
| 20260502214028 | 69 | 360 | 0.0 | 3.0 | 0.00 | 0.26 | 0.26 | 90 | 1009.1 |
| 20260502213527 | 69 | 360 | 0.0 | 1.0 | 0.00 | 0.26 | 0.26 | 91 | 1009.1 |
| 20260502213029 | 69 | 360 | 0.0 | 1.0 | 0.00 | 0.26 | 0.26 | 90 | 1009.1 |
| 20260502212527 | 68 | 360 | 0.0 | 1.0 | 0.00 | 0.26 | 0.26 | 90 | 1009.0 |
| 20260502212027 | 68 | 360 | 0.0 | 1.0 | 0.00 | 0.26 | 0.26 | 90 | 1009.0 |
| 20260502211540 | 68 | 360 | 0.0 | 1.0 | 0.00 | 0.26 | 0.26 | 91 | 1009.1 |
| 20260502211030 | 68 | 360 | 0.0 | 1.0 | 0.00 | 0.26 | 0.26 | 91 | 1009.0 |
| 20260502210526 | 68 | 360 | 0.0 | 2.0 | 0.00 | 0.26 | 0.26 | 91 | 1009.2 |
| 20260502210026 | 67 | 360 | 0.0 | 3.0 | 0.00 | 0.26 | 0.26 | 91 | 1009.3 |
| 20260502205529 | 67 | 290 | 0.0 | 4.0 | 0.00 | 0.26 | 0.26 | 91 | 1009.3 |
| 20260502205026 | 67 | 265 | 0.0 | 4.0 | 0.00 | 0.26 | 0.26 | 92 | 1009.5 |
| 20260502204526 | 67 | 284 | 0.0 | 3.0 | 0.00 | 0.26 | 0.26 | 91 | 1009.3 |
| 20260502204026 | 67 | 284 | 1.0 | 3.0 | 0.00 | 0.26 | 0.26 | 91 | 1009.3 |
| 20260502203526 | 67 | 288 | 1.0 | 3.0 | 0.00 | 0.26 | 0.26 | 91 | 1009.4 |
| 20260502203026 | 67 | 265 | 1.0 | 4.0 | 0.00 | 0.26 | 0.26 | 92 | 1009.6 |
| 20260502202525 | 67 | 218 | 1.0 | 3.0 | 0.00 | 0.26 | 0.26 | 92 | 1009.5 |
| 20260502202027 | 67 | 360 | 0.0 | 2.0 | 0.00 | 0.26 | 0.26 | 92 | 1009.5 |
| 20260502201525 | 67 | 297 | 0.0 | 3.0 | 0.00 | 0.26 | 0.26 | 92 | 1009.6 |
| 20260502201025 | 67 | 284 | 0.0 | 3.0 | 0.00 | 0.26 | 0.26 | 91 | 1009.7 |
| 20260502200524 | 67 | 273 | 0.0 | 3.0 | 0.00 | 0.26 | 0.26 | 92 | 1009.8 |
| 20260502200024 | 67 | 294 | 0.0 | 2.0 | 0.00 | 0.26 | 0.26 | 92 | 1009.9 |
| 20260502195524 | 67 | 309 | 0.0 | 3.0 | 0.00 | 0.26 | 0.26 | 92 | 1009.8 |
| 20260502195023 | 67 | 295 | 0.0 | 4.0 | 0.00 | 0.26 | 0.26 | 92 | 1009.8 |
| 20260502194523 | 68 | 295 | 1.0 | 4.0 | 0.00 | 0.26 | 0.26 | 91 | 1009.8 |
| 20260502194023 | 68 | 302 | 1.0 | 3.0 | 0.00 | 0.26 | 0.26 | 91 | 1010.0 |
| 20260502193523 | 68 | 271 | 1.0 | 3.0 | 0.00 | 0.26 | 0.26 | 91 | 1010.1 |
| 20260502193025 | 68 | 250 | 1.0 | 4.0 | 0.00 | 0.26 | 0.26 | 91 | 1009.9 |
| 20260502192521 | 68 | 264 | 1.0 | 4.0 | 0.00 | 0.26 | 0.26 | 91 | 1009.9 |
| 20260502192021 | 68 | 248 | 0.0 | 3.0 | 0.00 | 0.26 | 0.26 | 91 | 1009.6 |
| 20260502191524 | 68 | 265 | 0.0 | 3.0 | 0.00 | 0.26 | 0.26 | 91 | 1009.6 |
| 20260502191024 | 68 | 264 | 0.0 | 3.0 | 0.00 | 0.26 | 0.26 | 91 | 1009.6 |
| 20260502190523 | 68 | 288 | 0.0 | 3.0 | 0.00 | 0.26 | 0.26 | 91 | 1009.7 |
| 20260502190021 | 68 | 288 | 1.0 | 3.0 | 0.00 | 0.26 | 0.26 | 91 | 1009.6 |
| 20260502185524 | 68 | 285 | 1.0 | 3.0 | 0.00 | 0.26 | 0.26 | 92 | 1009.7 |
| 20260502185020 | 68 | 287 | 0.0 | 4.0 | 0.00 | 0.26 | 0.26 | 92 | 1009.4 |
| 20260502184522 | 68 | 288 | 1.0 | 4.0 | 0.00 | 0.26 | 0.26 | 91 | 1009.4 |
| 20260502184020 | 68 | 360 | 1.0 | 4.0 | 0.00 | 0.26 | 0.26 | 92 | 1009.0 |
| 20260502183520 | 67 | 360 | 1.0 | 4.0 | 0.00 | 0.26 | 0.26 | 92 | 1009.2 |
| 20260502183020 | 67 | 282 | 1.0 | 4.0 | 0.00 | 0.26 | 0.26 | 92 | 1008.9 |
| 20260502182519 | 68 | 360 | 1.0 | 4.0 | 0.00 | 0.26 | 0.26 | 92 | 1009.2 |
| 20260502182019 | 67 | 360 | 0.0 | 2.0 | 0.00 | 0.26 | 0.26 | 92 | 1009.4 |
| 20260502181524 | 67 | 360 | 0.0 | 2.0 | 0.00 | 0.26 | 0.26 | 92 | 1009.2 |
| 20260502181019 | 67 | 360 | 0.0 | 2.0 | 0.01 | 0.26 | 0.26 | 92 | 1009.3 |
| 20260502180518 | 67 | 360 | 0.0 | 2.0 | 0.01 | 0.26 | 0.26 | 91 | 1009.3 |
| 20260502170517 | 69 | 296 | 2.0 | 5.0 | 0.17 | 0.25 | 0.25 | 91 | 1009.6 |
| 20260502164015 | 71 | 360 | 2.0 | 8.0 | 0.19 | 0.23 | 0.23 | 92 | 1010.4 |
| 20260502163513 | 71 | 360 | 2.0 | 8.0 | 0.18 | 0.22 | 0.22 | 92 | 1009.9 |
| 20260502163012 | 71 | 360 | 2.0 | 5.0 | 0.16 | 0.20 | 0.20 | 93 | 1010.2 |
| 20260502162511 | 70 | 360 | 1.0 | 4.0 | 0.15 | 0.19 | 0.19 | 93 | 1010.1 |
| 20260502162014 | 70 | 360 | 0.0 | 4.0 | 0.14 | 0.18 | 0.18 | 93 | 1009.5 |
| 20260502161510 | 70 | 151 | 1.0 | 5.0 | 0.12 | 0.16 | 0.16 | 93 | 1009.8 |
| 20260502161011 | 70 | 143 | 0.0 | 3.0 | 0.08 | 0.12 | 0.12 | 93 | 1009.8 |
| 20260502160513 | 70 | 182 | 0.0 | 0.0 | 0.03 | 0.07 | 0.07 | 93 | 1010.0 |
| 20260502152006 | 67 | 192 | 0.0 | 0.0 | 0.03 | 0.04 | 0.04 | 91 | 1010.1 |
| 20260502151506 | 67 | 192 | 0.0 | 0.0 | 0.04 | 0.04 | 0.04 | 91 | 1010.1 |
| 20260502151011 | 67 | 193 | 0.0 | 0.0 | 0.04 | 0.04 | 0.04 | 91 | 1010.1 |
| 20260502150505 | 67 | 193 | 0.0 | 0.0 | 0.04 | 0.04 | 0.04 | 91 | 1010.4 |
| 20260502130502 | 67 | 360 | 0.0 | 0.0 | 0.00 | 0.00 | 0.00 | 86 | 1010.5 |
| 20260502123559 | 67 | 360 | 0.0 | 0.0 | 0.00 | 0.00 | 0.00 | 87 | 1010.1 |
| 20260502123102 | 67 | 360 | 0.0 | 0.0 | 0.00 | 0.00 | 0.00 | 87 | 1010.0 |
| 20260502122559 | 67 | 360 | 0.0 | 0.0 | 0.00 | 0.00 | 0.00 | 87 | 1010.2 |
| 20260502122059 | 67 | 360 | 0.0 | 0.0 | 0.00 | 0.00 | 0.00 | 87 | 1010.2 |
| 20260502121602 | 67 | 360 | 0.0 | 0.0 | 0.00 | 0.00 | 0.00 | 87 | 1010.2 |
| 20260502121058 | 67 | 360 | 0.0 | 0.0 | 0.00 | 0.00 | 0.00 | 87 | 1010.1 |
| 20260502120558 | 67 | 360 | 0.0 | 0.0 | 0.00 | 0.00 | 0.00 | 87 | 1010.0 |
| 20260502120113 | 67 | 360 | 0.0 | 0.0 | 0.00 | 0.00 | 0.00 | 87 | 1010.0 |
| 20260502115557 | 66 | 144 | 0.0 | 0.0 | 0.00 | 0.00 | 0.00 | 87 | 1009.9 |
| 20260502115056 | 66 | 144 | 0.0 | 0.0 | 0.00 | 0.00 | 0.00 | 88 | 1009.9 |
| 20260502114602 | 66 | 144 | 0.0 | 0.0 | 0.00 | 0.00 | 0.00 | 88 | 1009.8 |
| 20260502114058 | 66 | 144 | 0.0 | 0.0 | 0.00 | 0.00 | 0.00 | 88 | 1009.9 |
| 20260502113556 | 66 | 144 | 0.0 | 0.0 | 0.00 | 0.00 | 0.00 | 88 | 1009.8 |
| 20260502113056 | 66 | 144 | 0.0 | 0.0 | 0.00 | 0.00 | 0.00 | 88 | 1009.8 |
| 20260502112555 | 66 | 144 | 0.0 | 0.0 | 0.00 | 0.00 | 0.00 | 89 | 1009.8 |
| 20260502112058 | 66 | 144 | 0.0 | 0.0 | 0.00 | 0.00 | 0.00 | 89 | 1010.0 |
| 20260502111600 | 66 | 144 | 0.0 | 0.0 | 0.00 | 0.00 | 0.00 | 89 | 1010.1 |
| 20260502111055 | 66 | 144 | 0.0 | 0.0 | 0.00 | 0.00 | 0.00 | 89 | 1009.9 |
| 20260502110554 | 65 | 144 | 0.0 | 0.0 | 0.00 | 0.00 | 0.00 | 89 | 1009.7 |
| 20260502110056 | 65 | 144 | 0.0 | 0.0 | 0.00 | 0.00 | 0.00 | 90 | 1009.7 |
| 20260502105555 | 65 | 144 | 0.0 | 0.0 | 0.00 | 0.00 | 0.00 | 90 | 1009.7 |
| 20260502105054 | 65 | 145 | 0.0 | 0.0 | 0.00 | 0.00 | 0.00 | 90 | 1009.5 |
| 20260502104555 | 65 | 152 | 0.0 | 0.0 | 0.00 | 0.00 | 0.00 | 91 | 1009.6 |
| 20260502104053 | 65 | 145 | 0.0 | 0.0 | 0.00 | 0.00 | 0.00 | 91 | 1010.0 |
| 20260502103553 | 65 | 144 | 0.0 | 0.0 | 0.00 | 0.00 | 0.00 | 91 | 1009.3 |
| 20260502103053 | 65 | 144 | 0.0 | 0.0 | 0.00 | 0.00 | 0.00 | 91 | 1009.2 |
| 20260502102553 | 65 | 144 | 0.0 | 0.0 | 0.00 | 0.00 | 0.00 | 91 | 1009.0 |
| 20260502102056 | 65 | 144 | 0.0 | 0.0 | 0.00 | 0.00 | 0.00 | 91 | 1009.1 |
| 20260502101555 | 66 | 144 | 0.0 | 0.0 | 0.00 | 0.00 | 0.00 | 91 | 1009.1 |
| 20260502101052 | 66 | 144 | 0.0 | 0.0 | 0.00 | 0.00 | 0.00 | 91 | 1009.0 |
| 20260502100551 | 66 | 143 | 0.0 | 0.0 | 0.00 | 0.00 | 0.00 | 91 | 1008.8 |
| 20260502100113 | 66 | 143 | 0.0 | 0.0 | 0.00 | 0.00 | 0.00 | 91 | 1008.6 |
| 20260502091049 | 66 | 142 | 0.0 | 0.0 | 0.00 | 0.00 | 0.00 | 90 | 1009.0 |
| 20260502090549 | 66 | 142 | 0.0 | 0.0 | 0.00 | 0.00 | 0.00 | 90 | 1008.9 |
| 20260502071037 | 66 | 112 | 0.0 | 0.0 | 0.00 | 0.00 | 0.00 | 89 | 1011.0 |
| 20260502070537 | 67 | 112 | 0.0 | 0.0 | 0.00 | 0.00 | 0.00 | 89 | 1011.0 |
| 20260502070039 | 67 | 112 | 0.0 | 0.0 | 0.00 | 0.00 | 0.00 | 89 | 1010.9 |
| 20260502065536 | 67 | 112 | 0.0 | 0.0 | 0.00 | 0.00 | 0.00 | 89 | 1010.8 |
| 20260502065035 | 67 | 112 | 0.0 | 0.0 | 0.00 | 0.00 | 0.00 | 89 | 1010.7 |
| 20260502064540 | 67 | 112 | 0.0 | 0.0 | 0.00 | 0.00 | 0.00 | 89 | 1010.6 |
| 20260502064035 | 67 | 112 | 0.0 | 0.0 | 0.00 | 0.00 | 0.00 | 89 | 1010.7 |
| 20260502063534 | 67 | 112 | 0.0 | 0.0 | 0.00 | 0.00 | 0.00 | 89 | 1010.5 |
| 20260502063034 | 67 | 112 | 0.0 | 0.0 | 0.00 | 0.00 | 0.00 | 88 | 1010.5 |
| 20260502062536 | 67 | 112 | 0.0 | 0.0 | 0.00 | 0.00 | 0.00 | 88 | 1010.5 |
| 20260502062035 | 67 | 112 | 0.0 | 0.0 | 0.00 | 0.00 | 0.00 | 88 | 1010.8 |
| 20260502061532 | 67 | 112 | 0.0 | 0.0 | 0.00 | 0.00 | 0.00 | 88 | 1010.8 |
| 20260502061034 | 67 | 112 | 0.0 | 0.0 | 0.00 | 0.00 | 0.00 | 88 | 1010.8 |
| 20260502060530 | 67 | 112 | 0.0 | 0.0 | 0.00 | 0.00 | 0.00 | 88 | 1010.9 |
| 20260502060030 | 68 | 112 | 0.0 | 0.0 | 0.00 | 0.00 | 0.00 | 88 | 1011.1 |
| 20260502055532 | 68 | 112 | 0.0 | 0.0 | 0.00 | 0.00 | 0.00 | 88 | 1011.2 |
| 20260502055029 | 68 | 112 | 0.0 | 0.0 | 0.00 | 0.00 | 0.00 | 88 | 1011.4 |
| 20260502054529 | 68 | 112 | 0.0 | 0.0 | 0.00 | 0.00 | 0.00 | 87 | 1011.1 |
| 20260502054030 | 68 | 112 | 0.0 | 0.0 | 0.00 | 0.00 | 0.00 | 87 | 1011.0 |
| 20260502053527 | 68 | 112 | 0.0 | 0.0 | 0.00 | 0.00 | 0.00 | 87 | 1011.2 |
| 20260502053027 | 68 | 112 | 0.0 | 0.0 | 0.00 | 0.00 | 0.00 | 87 | 1011.4 |
| 20260502052526 | 68 | 112 | 0.0 | 0.0 | 0.00 | 0.00 | 0.00 | 87 | 1011.4 |
| 20260502052026 | 68 | 112 | 0.0 | 0.0 | 0.00 | 0.00 | 0.00 | 87 | 1011.2 |
| 20260502051543 | 68 | 112 | 0.0 | 0.0 | 0.00 | 0.00 | 0.00 | 87 | 1011.4 |
| 20260502051024 | 69 | 112 | 0.0 | 0.0 | 0.00 | 0.00 | 0.00 | 86 | 1011.5 |
| 20260502050523 | 69 | 112 | 0.0 | 0.0 | 0.00 | 0.00 | 0.00 | 86 | 1011.7 |
| 20260502050022 | 69 | 112 | 0.0 | 0.0 | 0.00 | 0.00 | 0.00 | 86 | 1011.7 |
| 20260502045521 | 69 | 112 | 0.0 | 0.0 | 0.00 | 0.01 | 0.00 | 85 | 1011.7 |
| 20260502045021 | 69 | 112 | 0.0 | 0.0 | 0.00 | 0.01 | 0.00 | 85 | 1011.6 |
| 20260502044520 | 69 | 112 | 0.0 | 0.0 | 0.00 | 0.01 | 0.00 | 85 | 1011.5 |
| 20260502044019 | 70 | 112 | 0.0 | 0.0 | 0.00 | 0.01 | 0.00 | 84 | 1011.5 |
| 20260502043518 | 70 | 112 | 0.0 | 0.0 | 0.00 | 0.01 | 0.00 | 84 | 1011.5 |
| 20260502043017 | 70 | 112 | 0.0 | 0.0 | 0.00 | 0.01 | 0.00 | 83 | 1011.7 |
| 20260502042516 | 70 | 112 | 0.0 | 0.0 | 0.00 | 0.01 | 0.00 | 83 | 1011.6 |
| 20260502042016 | 71 | 112 | 0.0 | 0.0 | 0.00 | 0.01 | 0.00 | 83 | 1011.6 |
| 20260502041516 | 71 | 113 | 0.0 | 0.0 | 0.00 | 0.01 | 0.00 | 82 | 1011.6 |
| 20260502041014 | 71 | 113 | 0.0 | 0.0 | 0.00 | 0.01 | 0.00 | 82 | 1011.7 |
| 20260502040513 | 71 | 113 | 0.0 | 0.0 | 0.00 | 0.01 | 0.00 | 82 | 1011.5 |
| 20260502040013 | 71 | 113 | 0.0 | 0.0 | 0.00 | 0.01 | 0.00 | 82 | 1011.4 |
| 20260502035511 | 71 | 112 | 0.0 | 0.0 | 0.00 | 0.01 | 0.01 | 82 | 1011.7 |
| 20260502035012 | 71 | 112 | 0.0 | 0.0 | 0.00 | 0.01 | 0.01 | 82 | 1011.8 |
| 20260502034518 | 71 | 112 | 0.0 | 0.0 | 0.00 | 0.01 | 0.01 | 82 | 1011.7 |
| 20260502034012 | 71 | 112 | 0.0 | 0.0 | 0.00 | 0.01 | 0.01 | 82 | 1011.6 |
| 20260502033514 | 71 | 112 | 0.0 | 0.0 | 0.00 | 0.01 | 0.01 | 82 | 1011.4 |
| 20260502033014 | 72 | 112 | 0.0 | 0.0 | 0.00 | 0.01 | 0.01 | 83 | 1011.5 |
| 20260502032511 | 72 | 112 | 0.0 | 0.0 | 0.00 | 0.01 | 0.01 | 83 | 1011.5 |
| 20260502032011 | 72 | 112 | 0.0 | 0.0 | 0.00 | 0.01 | 0.01 | 83 | 1011.7 |
| 20260502031511 | 72 | 112 | 0.0 | 0.0 | 0.00 | 0.01 | 0.01 | 83 | 1011.6 |
| 20260502031011 | 72 | 112 | 0.0 | 0.0 | 0.00 | 0.01 | 0.01 | 83 | 1011.5 |
| 20260502030510 | 72 | 112 | 0.0 | 0.0 | 0.00 | 0.01 | 0.01 | 83 | 1011.6 |
| 20260502030010 | 73 | 107 | 0.0 | 1.0 | 0.00 | 0.01 | 0.01 | 84 | 1011.4 |
| 20260502025510 | 73 | 107 | 0.0 | 1.0 | 0.00 | 0.01 | 0.01 | 84 | 1010.9 |
| 20260502025009 | 73 | 107 | 0.0 | 4.0 | 0.00 | 0.01 | 0.01 | 84 | 1011.3 |
| 20260502024509 | 73 | 105 | 1.0 | 4.0 | 0.00 | 0.01 | 0.01 | 84 | 1011.6 |
| 20260502024010 | 73 | 119 | 1.0 | 3.0 | 0.00 | 0.01 | 0.01 | 84 | 1011.5 |
| 20260502023514 | 73 | 136 | 0.0 | 3.0 | 0.00 | 0.01 | 0.01 | 84 | 1011.4 |
| 20260502023009 | 74 | 360 | 0.0 | 3.0 | 0.00 | 0.01 | 0.01 | 84 | 1011.8 |
| 20260502022510 | 74 | 360 | 0.0 | 3.0 | 0.00 | 0.01 | 0.01 | 83 | 1011.6 |
| 20260502022009 | 74 | 360 | 0.0 | 3.0 | 0.00 | 0.01 | 0.01 | 83 | 1011.7 |
| 20260502021509 | 74 | 360 | 0.0 | 2.0 | 0.00 | 0.01 | 0.01 | 83 | 1012.0 |
| 20260502021009 | 74 | 360 | 0.0 | 1.0 | 0.00 | 0.01 | 0.01 | 83 | 1011.7 |
| 20260502020508 | 74 | 360 | 0.0 | 1.0 | 0.00 | 0.01 | 0.01 | 83 | 1011.2 |
| 20260502020008 | 74 | 360 | 0.0 | 3.0 | 0.00 | 0.01 | 0.01 | 84 | 1011.5 |
| 20260502015508 | 74 | 360 | 1.0 | 3.0 | 0.00 | 0.01 | 0.01 | 84 | 1011.9 |
| 20260502015012 | 74 | 360 | 0.0 | 2.0 | 0.00 | 0.01 | 0.01 | 84 | 1011.7 |
| 20260502014512 | 74 | 360 | 0.0 | 2.0 | 0.00 | 0.01 | 0.01 | 84 | 1011.5 |
| 20260502014009 | 75 | 360 | 0.0 | 1.0 | 0.00 | 0.01 | 0.01 | 84 | 1011.6 |
| 20260502013507 | 75 | 360 | 0.0 | 3.0 | 0.00 | 0.01 | 0.01 | 83 | 1011.6 |
| 20260502013007 | 75 | 123 | 0.0 | 3.0 | 0.00 | 0.01 | 0.01 | 83 | 1011.2 |
| 20260502012506 | 76 | 126 | 0.0 | 3.0 | 0.00 | 0.01 | 0.01 | 82 | 1010.5 |
| 20260502012009 | 76 | 119 | 2.0 | 3.0 | 0.00 | 0.01 | 0.01 | 81 | 1010.7 |
| 20260502011505 | 77 | 121 | 1.0 | 3.0 | 0.00 | 0.01 | 0.01 | 80 | 1011.0 |
| 20260502011005 | 77 | 87 | 0.0 | 1.0 | 0.00 | 0.01 | 0.01 | 76 | 1011.1 |
| 20260502010504 | 77 | 87 | 0.0 | 1.0 | 0.00 | 0.01 | 0.01 | 76 | 1011.1 |
| 20260502010004 | 77 | 100 | 0.0 | 1.0 | 0.00 | 0.01 | 0.01 | 76 | 1011.0 |
| 20260502005504 | 77 | 107 | 0.0 | 2.0 | 0.00 | 0.12 | 0.01 | 76 | 1011.1 |
| 20260502005004 | 77 | 86 | 0.0 | 2.0 | 0.00 | 0.12 | 0.01 | 76 | 1010.9 |
| 20260502004504 | 78 | 109 | 0.0 | 2.0 | 0.00 | 0.12 | 0.01 | 77 | 1011.0 |
| 20260502004007 | 78 | 109 | 0.0 | 3.0 | 0.00 | 0.12 | 0.01 | 77 | 1011.1 |
| 20260502003503 | 78 | 9 | 1.0 | 4.0 | 0.00 | 0.12 | 0.01 | 76 | 1011.0 |
| 20260502003010 | 78 | 81 | 0.0 | 4.0 | 0.00 | 0.12 | 0.01 | 76 | 1011.0 |